Weather History for Monroe, WI

Change the Weather History Date:

Sunday, February 9, 2014

  Actual Average Record
Temperature  
Mean Temperature 8 °F -  
Max Temperature 16 °F 0 °F 48 °F (1999)
Min Temperature -1 °F - -4 °F (2003)
Degree Days  
Heating Degree Days 57    
Moisture  
Dew Point 3 °F    
Average Humidity 84    
Maximum Humidity 100    
Minimum Humidity 59    
Precipitation  
Precipitation 0.00 in - - ()
Sea Level Pressure  
Sea Level Pressure 30.14 in    
Wind  
Wind Speed 10 mph (WNW)    
Max Wind Speed 17 mph    
Max Gust Speed 20 mph    
Visibility 10 miles    
Events      
Averages and records for this station are not official NWS values.
T = Trace of Precipitation, MM = Missing Value Source: NWS Daily Summary

Daily Weather History Graph

Daily Weather History Graph

Search for Another Location

Airport:

Trip Planner

Search our weather history database for the weather conditions in past years. The results will help you decide how hot, cold, wet, or windy it might be!

Date:

Astronomy

Feb. 09, 2014 Rise Set
Actual Time 7:03 AM CST 5:22 PM CST
Civil Twilight 6:33 AM CST 5:51 PM CST
Nautical Twilight 6:00 AM CST 6:25 PM CST
Astronomical Twilight 5:27 AM CST 6:58 PM CST
Moon 1:00 PM CST (2/9) 3:10 AM CST (2/9)
Length of Visible Light 11h 17m
Length of Day
10h 19m
Waxing Gibbous, 77% of the Moon is Illuminated
Feb 9
Waxing Gibbous
Feb 14
Full
Feb 22
Last Quarter
Mar 1
New
Mar 8
First Quarter

Hourly Weather History & Observations

Time (CST) Temp. Windchill Dew Point Humidity Pressure Visibility Wind Dir Wind Speed Gust Speed Precip Events Conditions
12:15 AM 10.0 °F -0.9 °F 10.0 °F 100% 30.08 in 10.0 mi WNW 6.9 mph - N/A   Scattered Clouds
12:35 AM 9.1 °F -0.7 °F 9.1 °F 100% 30.07 in 10.0 mi NW 5.8 mph - N/A   Scattered Clouds
12:55 AM 8.4 °F -3.9 °F 8.4 °F 100% 30.08 in 10.0 mi WNW 8.1 mph - N/A   Scattered Clouds
1:15 AM 8.2 °F -4.1 °F 8.2 °F 100% 30.09 in 10.0 mi WNW 8.1 mph - N/A   Clear
1:35 AM 8.2 °F -4.1 °F 8.2 °F 100% 30.09 in 10.0 mi WNW 8.1 mph - N/A   Scattered Clouds
1:55 AM 8.4 °F -3.9 °F 8.4 °F 100% 30.08 in 10.0 mi WNW 8.1 mph - N/A   Mostly Cloudy
2:15 AM 7.7 °F -4.8 °F 7.7 °F 100% 30.08 in 10.0 mi WNW 8.1 mph - N/A   Scattered Clouds
2:35 AM 7.2 °F -5.4 °F 7.2 °F 100% 30.07 in 10.0 mi NW 8.1 mph - N/A   Clear
2:55 AM 6.8 °F -6.9 °F 6.8 °F 100% 30.08 in 10.0 mi WNW 9.2 mph - N/A   Clear
3:15 AM 6.8 °F -5.9 °F 6.8 °F 100% 30.08 in 10.0 mi WNW 8.1 mph - N/A   Clear
3:35 AM 6.6 °F -7.1 °F 6.6 °F 100% 30.09 in 10.0 mi WNW 9.2 mph - N/A   Clear
3:55 AM 5.5 °F -8.4 °F 5.5 °F 100% 30.09 in 10.0 mi WNW 9.2 mph - N/A   Clear
4:15 AM 5.2 °F -8.9 °F 5.2 °F 100% 30.09 in 10.0 mi WNW 9.2 mph - N/A   Clear
4:35 AM 5.4 °F -8.6 °F 5.4 °F 100% 30.08 in 10.0 mi WNW 9.2 mph - N/A   Clear
4:55 AM 5.0 °F -9.1 °F 5.0 °F 100% 30.09 in 10.0 mi WNW 9.2 mph - N/A   Clear
5:15 AM 5.0 °F -10.0 °F 5.0 °F 100% 30.09 in 10.0 mi WNW 10.4 mph - N/A   Clear
5:35 AM 4.8 °F -10.2 °F 4.8 °F 100% 30.09 in 10.0 mi WNW 10.4 mph - N/A   Clear
5:55 AM 4.5 °F -10.7 °F 4.5 °F 100% 30.09 in 10.0 mi WNW 10.4 mph - N/A   Clear
6:15 AM 3.9 °F -12.2 °F 3.9 °F 100% 30.10 in 10.0 mi WNW 11.5 mph - N/A   Clear
6:35 AM 3.9 °F -11.3 °F 3.9 °F 100% 30.10 in 10.0 mi WNW 10.4 mph - N/A   Clear
6:55 AM 3.6 °F -12.6 °F 3.6 °F 100% 30.10 in 10.0 mi WNW 11.5 mph - N/A   Clear
7:15 AM 2.8 °F -12.7 °F 2.8 °F 100% 30.10 in 10.0 mi WNW 10.4 mph - N/A   Clear
7:35 AM 2.8 °F -11.7 °F 2.8 °F 100% 30.10 in 10.0 mi NW 9.2 mph - N/A   Clear
7:55 AM 3.7 °F -11.6 °F 3.7 °F 100% 30.11 in 10.0 mi WNW 10.4 mph - N/A   Clear
8:15 AM 4.6 °F -10.4 °F 4.6 °F 100% 30.12 in 10.0 mi WNW 10.4 mph - N/A   Mostly Cloudy
8:35 AM 5.0 °F -10.0 °F 5.0 °F 100% 30.13 in 10.0 mi WNW 10.4 mph - N/A   Scattered Clouds
8:55 AM 5.9 °F -8.0 °F 5.9 °F 100% 30.13 in 10.0 mi WNW 9.2 mph - N/A   Clear
9:15 AM 6.3 °F -6.5 °F 6.3 °F 100% 30.13 in 10.0 mi WNW 8.1 mph - N/A   Clear
9:35 AM 6.6 °F -7.1 °F 6.6 °F 100% 30.13 in 10.0 mi WNW 9.2 mph - N/A   Clear
9:55 AM 7.3 °F -4.1 °F 7.3 °F 100% 30.13 in 10.0 mi WNW 6.9 mph - N/A   Clear
10:15 AM 8.8 °F -2.4 °F 8.8 °F 100% 30.13 in 10.0 mi WNW 6.9 mph - N/A   Clear
10:35 AM 10.6 °F 1.0 °F 10.6 °F 100% 30.13 in 10.0 mi West 5.8 mph - N/A   Clear
10:55 AM 11.3 °F -0.4 °F 11.3 °F 100% 30.15 in 10.0 mi West 8.1 mph - N/A   Clear
11:15 AM 12.0 °F -0.4 °F 12.0 °F 100% 30.14 in 10.0 mi West 9.2 mph - N/A   Clear
11:35 AM 13.1 °F 2.8 °F 12.7 °F 98% 30.13 in 10.0 mi WSW 6.9 mph - N/A   Clear
12:00 PM 14.0 °F 2.0 °F 11.7 °F 90% 30.13 in 10.0 mi West 9.2 mph - N/A   Clear
12:15 PM 14.4 °F 1.6 °F 9.1 °F 80% 30.13 in 10.0 mi West 10.4 mph - N/A   Clear
12:37 PM 15.8 °F 3.4 °F 6.8 °F 68% 30.13 in 10.0 mi West 10.4 mph - N/A   Clear
12:40 PM 15.8 °F 5.1 °F 7.0 °F 68% 30.12 in 10.0 mi West 8.1 mph - N/A   Clear
12:55 PM 15.8 °F 2.7 °F 5.5 °F 64% 30.11 in 10.0 mi West 11.5 mph - N/A   Clear
1:20 PM 16.2 °F 4.7 °F 4.8 °F 61% 30.11 in 10.0 mi WNW 9.2 mph - N/A   Scattered Clouds
1:35 PM 16.7 °F 2.0 °F 4.8 °F 60% 30.11 in 10.0 mi WNW 15.0 mph 18.4 mph N/A   Scattered Clouds
1:55 PM 16.2 °F 0.3 °F 4.1 °F 59% 30.12 in 10.0 mi West 17.3 mph - N/A   Clear
2:15 PM 16.3 °F 1.6 °F 4.8 °F 61% 30.12 in 10.0 mi West 15.0 mph - N/A   Clear
2:35 PM 16.3 °F 3.4 °F 4.8 °F 61% 30.13 in 10.0 mi WNW 11.5 mph - N/A   Clear
2:55 PM 16.3 °F 3.4 °F 5.7 °F 63% 30.14 in 10.0 mi West 11.5 mph - N/A   Clear
3:15 PM 15.8 °F 3.4 °F 6.1 °F 66% 30.14 in 10.0 mi West 10.4 mph - N/A   Clear
3:35 PM 15.6 °F 3.2 °F 5.4 °F 64% 30.15 in 10.0 mi West 10.4 mph - N/A   Scattered Clouds
3:55 PM 15.4 °F 1.6 °F 4.5 °F 62% 30.14 in 10.0 mi West 12.7 mph - N/A   Scattered Clouds
4:15 PM 14.9 °F 0.3 °F 3.2 °F 60% 30.14 in 10.0 mi West 13.8 mph 19.6 mph N/A   Clear
4:35 PM 13.1 °F -0.7 °F 4.6 °F 69% 30.15 in 10.0 mi West 11.5 mph - N/A   Clear
4:55 PM 11.8 °F -2.3 °F 3.7 °F 70% 30.16 in 10.0 mi West 11.5 mph - N/A   Clear
5:20 PM 9.7 °F -5.7 °F 1.8 °F 70% 30.16 in 10.0 mi West 12.7 mph - N/A   Clear
5:35 PM 9.1 °F -5.6 °F 1.2 °F 70% 30.16 in 10.0 mi West 11.5 mph - N/A   Clear
5:55 PM 7.5 °F -8.4 °F -0.2 °F 71% 30.17 in 10.0 mi WSW 12.7 mph - N/A   Clear
6:15 PM 7.3 °F -7.9 °F -0.4 °F 71% 30.18 in 10.0 mi West 11.5 mph - N/A   Clear
6:35 PM 6.6 °F -9.5 °F -0.9 °F 71% 30.19 in 10.0 mi West 12.7 mph - N/A   Clear
6:55 PM 5.5 °F -11.6 °F -2.0 °F 71% 30.20 in 10.0 mi West 13.8 mph - N/A   Clear
7:15 PM 5.0 °F -11.6 °F -2.2 °F 72% 30.20 in 10.0 mi West 12.7 mph - N/A   Clear
7:35 PM 4.8 °F -12.5 °F -3.3 °F 69% 30.21 in 10.0 mi West 13.8 mph - N/A   Clear
7:55 PM 2.3 °F -16.4 °F -4.9 °F 72% 30.22 in 10.0 mi West 15.0 mph - N/A   Clear
8:15 PM 1.9 °F -16.9 °F -5.3 °F 72% 30.23 in 10.0 mi West 15.0 mph - N/A   Clear
8:35 PM 0.7 °F -15.4 °F -6.2 °F 73% 30.23 in 10.0 mi West 10.4 mph - N/A   Clear
8:55 PM 0.3 °F -16.7 °F -6.9 °F 72% 30.24 in 10.0 mi West 11.5 mph - N/A   Clear
8:57 PM -0.4 °F -17.6 °F -7.6 °F 72% 30.24 in 10.0 mi West 11.5 mph - N/A   Clear
9:15 PM -0.9 °F -17.4 °F -7.6 °F 73% 30.24 in 10.0 mi West 10.4 mph - N/A   Clear
9:35 PM -0.2 °F -18.2 °F -6.7 °F 74% 30.25 in 10.0 mi West 12.7 mph - N/A   Clear
9:55 PM 0.5 °F -16.5 °F -7.2 °F 70% 30.25 in 10.0 mi West 11.5 mph - N/A   Clear
10:15 PM -0.0 °F -18.0 °F -7.8 °F 70% 30.26 in 10.0 mi West 12.7 mph - N/A   Clear
10:35 PM -0.6 °F -16.0 °F -8.3 °F 70% 30.26 in 10.0 mi WNW 9.2 mph - N/A   Clear
10:55 PM -0.6 °F -17.8 °F -8.5 °F 69% 30.26 in 10.0 mi NW 11.5 mph - N/A   Clear
11:15 PM -0.6 °F -16.9 °F -8.5 °F 69% 30.26 in 10.0 mi NW 10.4 mph - N/A   Clear
11:35 PM -0.9 °F -19.9 °F -8.7 °F 70% 30.26 in 10.0 mi NW 13.8 mph - N/A   Clear
11:55 PM -1.3 °F -19.6 °F -9.0 °F 70% 30.26 in 10.0 mi NW 12.7 mph - N/A   Clear